Location: Village de las Huertas
(35.3014°N, 106.4095°W)
Time: 22:14:52
(UTC+00:00)

Envisat - Visible Passes

Search period start: 22 January 2021 00:00
Search period end: 01 February 2021 00:00
Orbit: 764 x 766 km, 98.1° (Epoch: 22 January)

Date Brightness Start Highest point End Pass type
(mag) Time Alt. Az. Time Alt. Az. Time Alt. Az.
22 Jan 5.6 00:59:50 10° SSW 01:04:00 25° W 01:08:12 10° NW visible
22 Jan 6.0 11:34:04 10° ENE 11:36:31 13° E 11:38:57 10° ESE visible
22 Jan 3.0 13:10:52 10° N 13:15:51 58° WNW 13:20:49 10° SSW visible
23 Jan 3.6 12:34:03 10° NNE 12:39:05 60° E 12:44:04 10° S visible
24 Jan 6.2 01:27:05 10° WSW 01:29:37 14° W 01:32:09 10° WNW visible
24 Jan 5.2 11:57:58 10° NE 12:02:08 25° E 12:06:15 10° SSE visible
24 Jan 3.7 13:36:38 10° N 13:41:06 32° WNW 13:45:33 10° SW visible
25 Jan 5.1 00:48:00 10° SSW 00:52:32 33° W 00:57:06 10° NNW visible
25 Jan 2.9 12:59:24 10° N 13:04:28 75° WNW 13:09:31 10° SSW visible
26 Jan 4.1 12:22:46 10° NNE 12:27:39 46° E 12:32:30 10° S visible
27 Jan 6.0 01:14:42 10° SW 01:18:06 18° W 01:21:32 10° NW visible
27 Jan 5.6 11:47:02 10° NE 11:50:38 19° E 11:54:14 10° SE visible
27 Jan 3.4 13:25:01 10° N 13:29:46 41° WNW 13:34:29 10° SW visible
28 Jan 3.0 12:47:58 10° NNE 12:53:05 85° ESE 12:58:09 10° SSW visible
29 Jan 4.6 12:11:33 10° NNE 12:16:12 35° E 12:20:49 10° SSE visible
30 Jan 5.8 01:02:36 10° SSW 01:06:37 23° W 01:10:38 10° NW visible
30 Jan 5.9 11:36:19 10° ENE 11:39:08 15° E 11:41:57 10° SE visible
30 Jan 3.1 13:13:29 10° N 13:18:25 53° WNW 13:23:20 10° SSW visible
31 Jan 3.4 12:36:36 10° NNE 12:41:40 66° E 12:46:41 10° S visible
